User: anonymous   Login
Location: The Jewett Observatory
(46.7288°N, 117.1525°W)
Time: 20:41:28
(UTC-07:00)
Language:

Cosmos 1633 - Orbit

View from above orbital plane
View from above orbital plane
View from above satellite
View from above satellite

Ground track
Ground track

The orbit data is extracted from the following two-line orbital elements,

1 15592U 85020A   17177.48434886 +.00001331 +00000-0 +46552-4 0  9999
2 15592 082.5386 309.9926 0014707 139.6326 220.6008 15.28511104765434
Epoch (UTC): 26 June 2017 11:37:27
Eccentricity: 0.0014707
inclination: 82.5386°
perigee height: 470 km
apogee height: 490 km
right ascension of ascending node: 309.9926°
argument of perigee: 139.6326°
revolutions per day: 15.28511104
mean anomaly at epoch: 220.6008°
orbit number at epoch: 76543

The dashed part of the orbit path shows where the satellite is in the earth's shadow,  

DLR